Mayfld Grav Cnty AP, Mayfield, KY

6:18 AM CDT on July 19, 2019 (GMT -0500)
Mayfld Grav Cnty AP, Mayfield

Weather History for KM25 - May, 2019

Change the Weather History Date:

Wednesday, May 1, 2019

  Actual Average (WUND) Record (WUND)
Temperature  
Mean Temperature 70 °F -  
Max Temperature 77 °F - - (-1)
Min Temperature 62 °F - - (-1)
Cooling Degree Days 4    
Growing Degree Days 20 (Base 50)    
Moisture  
Dew Point 62 °F    
Average Humidity 79    
Maximum Humidity 94    
Minimum Humidity 61    
Precipitation  
Precipitation 0.15 in - - ()
Sea Level Pressure  
Sea Level Pressure 30.05 in    
Wind  
Wind Speed 10 mph (SSW)    
Max Wind Speed 21 mph    
Max Gust Speed 31 mph    
Visibility 10 miles    
Events      
Averages and records for this station are not official NWS values.
T = Trace of Precipitation, MM = Missing Value Source: NWS Daily Summary

Daily Weather History Graph

Daily Weather History Graph

Search for Another Location

Airport or City:

Astronomy

May. 01, 2019 Rise Set
Actual Time 6:00 AM CDT 7:42 PM CDT
Civil Twilight 5:32 AM CDT 8:10 PM CDT
Nautical Twilight 4:59 AM CDT 8:44 PM CDT
Astronomical Twilight 4:23 AM CDT 9:19 PM CDT
Moon 4:37 AM CDT (5/1) 4:37 PM CDT (5/1)
Length of Visible Light 14h 37m
Length of Day
13h 42m
Waning Crescent, 10% of the Moon is Illuminated
May 1
Waning Crescent
May 4
New
May 11
First Quarter
May 18
Full
May 26
Last Quarter

Hourly Weather History & Observations

Time (CDT) Temp. Dew Point Humidity Pressure Visibility Wind Dir Wind Speed Gust Speed Precip Events Conditions
12:15 AM 71.6 °F 59.0 °F 64% 30.01 in 10.0 mi South 10.4 mph 18.4 mph N/A   Clear
12:35 AM 69.8 °F 59.0 °F 68% 30.01 in 10.0 mi South 9.2 mph 17.3 mph N/A   Clear
12:55 AM 69.8 °F 59.0 °F 68% 30.01 in 10.0 mi South 10.4 mph 16.1 mph N/A   Clear
1:15 AM 69.8 °F 59.0 °F 68% 30.01 in 10.0 mi South 8.1 mph 16.1 mph N/A   Clear
1:35 AM 69.8 °F 59.0 °F 68% 30.01 in 10.0 mi South 8.1 mph - N/A   Clear
1:55 AM 69.8 °F 60.8 °F 73% 30.01 in 10.0 mi South 9.2 mph - N/A   Clear
2:15 AM 69.8 °F 60.8 °F 73% 30.01 in 10.0 mi South 9.2 mph - N/A   Clear
2:35 AM 68.0 °F 60.8 °F 78% 30.01 in 10.0 mi South 8.1 mph - N/A   Clear
2:55 AM 68.0 °F 60.8 °F 78% 30.00 in 10.0 mi SSE 9.2 mph - N/A   Clear
3:15 AM 68.0 °F 60.8 °F 78% 29.99 in 10.0 mi South 9.2 mph - N/A   Clear
3:35 AM 68.0 °F 60.8 °F 78% 29.99 in 10.0 mi South 10.4 mph - N/A   Clear
3:55 AM 69.8 °F 60.8 °F 73% 29.99 in 10.0 mi South 9.2 mph - N/A   Clear
4:15 AM 69.8 °F 62.6 °F 78% 29.99 in 10.0 mi South 8.1 mph 17.3 mph N/A   Clear
4:35 AM 69.8 °F 62.6 °F 78% 29.98 in 10.0 mi South 10.4 mph 19.6 mph N/A   Clear
4:55 AM 71.6 °F 62.6 °F 73% 29.98 in 10.0 mi South 16.1 mph 24.2 mph N/A   Clear
5:15 AM 71.6 °F 62.6 °F 73% 29.98 in 10.0 mi South 19.6 mph 29.9 mph N/A   Clear
5:35 AM 71.6 °F 62.6 °F 73% 29.99 in 10.0 mi SSW 19.6 mph 31.1 mph N/A   Clear
5:55 AM 71.6 °F 62.6 °F 73% 30.00 in 10.0 mi South 20.7 mph 28.8 mph N/A   Clear
6:15 AM 71.6 °F 62.6 °F 73% 30.00 in 10.0 mi South 15.0 mph 28.8 mph N/A   Clear
6:35 AM 71.6 °F 62.6 °F 73% 30.01 in 10.0 mi SSW 13.8 mph 25.3 mph N/A   Clear
6:55 AM 71.6 °F 62.6 °F 73% 30.04 in 10.0 mi SSW 13.8 mph 20.7 mph N/A   Mostly Cloudy
7:15 AM 64.4 °F 59.0 °F 83% 30.08 in 10.0 mi West 17.3 mph 31.1 mph N/A   Overcast
7:35 AM 62.6 °F 59.0 °F 88% 30.09 in 10.0 mi West 9.2 mph - N/A   Overcast
7:55 AM 62.6 °F 59.0 °F 88% 30.09 in 10.0 mi West 5.8 mph - N/A   Overcast
8:15 AM 62.6 °F 59.0 °F 88% 30.08 in 10.0 mi SW 5.8 mph - N/A   Overcast
8:35 AM 64.4 °F 59.0 °F 83% 30.08 in 10.0 mi SSW 5.8 mph - N/A   Mostly Cloudy
8:55 AM 64.4 °F 59.0 °F 83% 30.08 in 10.0 mi South 3.5 mph - N/A   Scattered Clouds
9:15 AM 66.2 °F 60.8 °F 83% 30.08 in 10.0 mi Calm Calm - N/A   Clear
9:35 AM 69.8 °F 60.8 °F 73% 30.07 in 10.0 mi South 5.8 mph - N/A   Scattered Clouds
9:55 AM 71.6 °F 62.6 °F 73% 30.07 in 10.0 mi South 6.9 mph - N/A   Clear
10:15 AM 73.4 °F 62.6 °F 69% 30.07 in 10.0 mi South 9.2 mph - N/A   Clear
10:35 AM 73.4 °F 62.6 °F 69% 30.07 in 10.0 mi South 15.0 mph 19.6 mph N/A   Scattered Clouds
10:55 AM 75.2 °F 62.6 °F 65% 30.07 in 10.0 mi SSW 17.3 mph 23.0 mph N/A   Mostly Cloudy
11:15 AM 75.2 °F 62.6 °F 65% 30.07 in 10.0 mi South 15.0 mph 23.0 mph N/A   Mostly Cloudy
11:35 AM 75.2 °F 62.6 °F 65% 30.08 in 10.0 mi SSW 20.7 mph 25.3 mph N/A   Overcast
11:55 AM 77.0 °F 64.4 °F 65% 30.08 in 10.0 mi SSW 15.0 mph 21.9 mph N/A   Overcast
12:15 PM 77.0 °F 62.6 °F 61% 30.08 in 10.0 mi SSW 12.7 mph 23.0 mph N/A   Overcast
12:35 PM 77.0 °F 64.4 °F 65% 30.08 in 10.0 mi SSW 13.8 mph 23.0 mph N/A   Mostly Cloudy
12:55 PM 75.2 °F 64.4 °F 69% 30.08 in 7.0 mi South 16.1 mph - N/A   Mostly Cloudy
1:15 PM 73.4 °F 68.0 °F 83% 30.07 in 10.0 mi SSW 8.1 mph 16.1 mph N/A   Mostly Cloudy
1:35 PM 77.0 °F 68.0 °F 74% 30.06 in 10.0 mi South 11.5 mph - N/A   Scattered Clouds
1:55 PM 69.8 °F 64.4 °F 83% 30.09 in 1.8 mi WSW 12.7 mph 28.8 mph 0.06 in   Mostly Cloudy
2:15 PM 66.2 °F 64.4 °F 94% 30.08 in 4.0 mi SW 10.4 mph - 0.09 in   Mostly Cloudy
2:35 PM 66.2 °F 64.4 °F 94% 30.07 in 10.0 mi South 6.9 mph - 0.09 in   Scattered Clouds
2:55 PM 68.0 °F 64.4 °F 88% 30.07 in 10.0 mi South 8.1 mph - 0.09 in   Mostly Cloudy
3:15 PM 68.0 °F 64.4 °F 88% 30.05 in 10.0 mi South 5.8 mph - N/A   Mostly Cloudy
3:35 PM 68.0 °F 64.4 °F 88% 30.03 in 10.0 mi South 9.2 mph - N/A   Overcast
3:55 PM 69.8 °F 64.4 °F 83% 30.03 in 10.0 mi South 6.9 mph - N/A   Overcast
4:15 PM 69.8 °F 62.6 °F 78% 30.04 in 10.0 mi South 8.1 mph - N/A   Mostly Cloudy
4:35 PM 69.8 °F 62.6 °F 78% 30.04 in 10.0 mi SSW 5.8 mph - N/A   Scattered Clouds
4:55 PM 69.8 °F 64.4 °F 83% 30.05 in 10.0 mi SW 6.9 mph - N/A   Mostly Cloudy
5:15 PM 69.8 °F 64.4 °F 83% 30.06 in 10.0 mi WSW 5.8 mph - N/A   Scattered Clouds
5:35 PM 71.6 °F 64.4 °F 78% 30.06 in 10.0 mi West 5.8 mph - N/A   Clear
5:55 PM 69.8 °F 62.6 °F 78% 30.02 in 10.0 mi SE 6.9 mph - N/A   Clear
6:15 PM 69.8 °F 62.6 °F 78% 30.06 in 10.0 mi SW 4.6 mph - N/A   Clear
6:35 PM 69.8 °F 62.6 °F 78% 30.06 in 10.0 mi SW 5.8 mph - N/A   Clear
6:55 PM 69.8 °F 62.6 °F 78% 30.07 in 10.0 mi Calm Calm - N/A   Clear
7:15 PM 68.0 °F 62.6 °F 83% 30.07 in 10.0 mi Calm Calm - N/A   Clear
7:35 PM 68.0 °F 62.6 °F 83% 30.07 in 7.0 mi SSE 3.5 mph - N/A   Clear
7:55 PM 66.2 °F 62.6 °F 88% 30.07 in 5.0 mi South 3.5 mph - N/A   Clear
8:15 PM 64.4 °F 62.6 °F 94% 30.08 in 10.0 mi South 5.8 mph - N/A   Clear
8:35 PM 64.4 °F 62.6 °F 94% 30.09 in 10.0 mi South 4.6 mph - N/A   Clear
8:55 PM 64.4 °F 60.8 °F 88% 30.10 in 10.0 mi SSW 3.5 mph - N/A   Scattered Clouds
9:15 PM 64.4 °F 60.8 °F 88% 30.09 in 10.0 mi SSW 5.8 mph - N/A   Scattered Clouds
9:35 PM 64.4 °F 62.6 °F 94% 30.09 in 10.0 mi South 5.8 mph - N/A   Clear
9:55 PM 64.4 °F 60.8 °F 88% 30.09 in 10.0 mi South 5.8 mph - N/A   Clear
10:15 PM 64.4 °F 60.8 °F 88% 30.09 in 10.0 mi South 5.8 mph - N/A   Clear
10:35 PM 64.4 °F 60.8 °F 88% 30.10 in 10.0 mi SSW 6.9 mph - N/A   Clear
10:55 PM 64.4 °F 60.8 °F 88% 30.11 in 10.0 mi South 5.8 mph - N/A   Scattered Clouds
11:15 PM 64.4 °F 60.8 °F 88% 30.10 in 10.0 mi South 5.8 mph - N/A   Scattered Clouds
11:35 PM 64.4 °F 60.8 °F 88% 30.10 in 10.0 mi South 5.8 mph - N/A   Clear
11:55 PM 62.6 °F 60.8 °F 94% 30.10 in 10.0 mi SSW 4.6 mph - N/A   Clear